This is the latest recevied weather packets stored in our database for station/object WB3IGR. If no packets are shown the sender has not sent any weather packets the latest 10 day(s).
| Time | Temp. | Humidity | Pressure | Rain* | Wind** | Luminosity | Snow |
|---|---|---|---|---|---|---|---|
| 1778201002 | 12.78° C | 68% | 1010.2 hPa | 0 mm | - | 0 W/m² | - |
| 1778200699 | 12.22° C | 70% | 1010.2 hPa | 0 mm | - | 0 W/m² | - |
| 1778200397 | 12.78° C | 73% | 1010.3 hPa | 0 mm | - | 0 W/m² | - |
| 1778200093 | 12.78° C | 72% | 1010.4 hPa | 0 mm | - | 0 W/m² | - |
| 1778199790 | 12.78° C | 69% | 1010.4 hPa | 0 mm | - | 0 W/m² | - |
| 1778199486 | 12.78° C | 73% | 1010.1 hPa | 0 mm | - | 0 W/m² | - |
| 1778199182 | 12.78° C | 69% | 1010.2 hPa | 0 mm | - | 0 W/m² | - |
| 1778198878 | 12.78° C | 70% | 1010.4 hPa | 0 mm | - | 0 W/m² | - |
| 1778198575 | 12.78° C | 67% | 1010.1 hPa | 0 mm | - | 0 W/m² | - |
| 1778198271 | 13.33° C | 68% | 1010.1 hPa | 0 mm | - | 2 W/m² | - |
| 1778197969 | 13.33° C | 67% | 1010.1 hPa | 0 mm | - | 3 W/m² | - |
| 1778197666 | 13.33° C | 65% | 1010 hPa | 0 mm | - | 6 W/m² | - |
| 1778197363 | 13.33° C | 66% | 1010 hPa | 0 mm | - | 10 W/m² | - |
| 1778197059 | 13.89° C | 65% | 1010 hPa | 0 mm | - | 16 W/m² | - |
| 1778196757 | 14.44° C | 61% | 1010 hPa | 0 mm | - | 19 W/m² | - |
| 1778196454 | 15° C | 56% | 1009.7 hPa | 0 mm | - | 24 W/m² | - |
| 1778196151 | 15.56° C | 54% | 1009.7 hPa | 0 mm | - | 30 W/m² | - |
| 1778195847 | 16.11° C | 52% | 1009.8 hPa | 0 mm | - | 36 W/m² | - |
| 1778195545 | 16.11° C | 44% | 1009.8 hPa | 0 mm | - | 44 W/m² | - |
| 1778195241 | 16.11° C | 44% | 1009.9 hPa | 0 mm | - | 43 W/m² | - |
| 1778194939 | 16.67° C | 46% | 1009.8 hPa | 0 mm | - | 50 W/m² | - |
| 1778194638 | 16.67° C | 44% | 1009.7 hPa | 0 mm | - | 53 W/m² | - |
| 1778194335 | 16.67° C | 44% | 1009.6 hPa | 0 mm | - | 47 W/m² | - |
| 1778194030 | 16.67° C | 43% | 1010 hPa | 0 mm | - | 52 W/m² | - |
| 1778193727 | 17.78° C | 40% | 1009.8 hPa | 0 mm | - | 54 W/m² | - |
* Rain latest hour (hover to see other rain measurements)
** Current wind speed in m/s (hover to see current wind gust speed)